Location: *
(46.1333°S, 161.2167°W)
Time: 04:09:59
(UTC+00:00)

Meteor 2-13 Rocket - Pass Details

Date: 15 July 2020
Orbit: 935 x 958 km, 82.5° (Epoch: 10 August)

Event Time Altitude Azimuth Distance (km) Brightness Sun altitude
Rises 16:17:35 0° 339° (NNW) 3,609 7.4 -20.9°
Reaches altitude 10° 16:20:06 10° 335° (NNW) 2,676 6.6 -20.4°
Maximum altitude 16:26:07 56° 257° (WSW) 1,132 4.5 -19.4°
Drops below altitude 10° 16:32:15 10° 178° (S) 2,722 6.7 -18.4°
Sets 16:34:51 0° 173° (S) 3,677 7.5 -17.9°
